Погода в Араде

Израиль     31°15′29″N   35°12′34″E
темп.,
°C
ветер,
м/с
пор.,
м/с
влажн.,
%
обл.,
%
осадки,
мм/ч
давл.,
гПа
погр.,
м
19 апреля, пн
пн1900:00+30с33150 0.0 101413
03:00+28св222172 0.0 101311
06:00+26ссв1223100 0.0 101311
09:00+31всв2216100 0.0 1014280
12:00+35юв2312100 0.0 1013661
15:00+38ю35931 0.0 10101854
18:00+37ююв1110100 0.0 100930
21:00+33ююз3312100 0.0 101017
20 апреля, вт
вт2000:00+31зсз3315100 0.0 101119
03:00+30з4315100 0.0 101016
06:00+27з1118100 0.0 101011
09:00+32з3414100 0.0 1011311
12:00+31з5525100 0.0 1012537
15:00+32зсз9726100 0.0 1010799
18:00+27зсз4537100 0.0 1011369
21:00+22зсз224865 0.0 1014177
21 апреля, ср
ср2100:00+20з11530 0.0 1016188
03:00+18зюз22580 0.0 1016129
06:00+16з126413 0.0 101731
09:00+19вюв214421 0.0 1018471
12:00+25в222533 0.0 1016829
15:00+28св2321100 0.0 1014816
18:00+26ссз3423100 0.0 1014744
21:00+22зсз2231100 0.0 1017228
22 апреля, чт
чт2200:00+19ююз123779 0.0 1018109
03:00+17ююз1142100 0.0 101818
06:00+16юв115047 0.0 101811
09:00+19вюв11375 0.0 1018408
12:00+25в222025 0.0 1018880
15:00+27всв33225 0.0 1016768
18:00+27ссз55190 0.0 1015914
21:00+22зсз12284 0.0 101731
23 апреля, пт
пт2300:00+20зюз22300 0.0 101828
03:00+17з22360 0.0 101720
06:00+16зюз01410 0.0 101711
09:00+19всв12340 0.0 1018362
12:00+25св34160 0.0 1016698
15:00+29всв33129 0.0 1013908
18:00+28св23141 0.0 1012445
21:00+25с33255 0.0 101328